Pine Ridge, SD

6:52 PM MDT on October 17, 2017 (GMT -0600)
Pine Ridge

Weather History for KIEN - November, 2013

Change the Weather History Date:

Thursday, November 28, 2013

  Actual Average Record
Temperature  
Mean Temperature 28 °F 28 °F  
Max Temperature 41 °F 41 °F 67 °F (2014)
Min Temperature 14 °F 14 °F -6 °F (2001)
Degree Days  
Heating Degree Days 37 37  
Month to date heating degree days 883 859  
Since 1 July heating degree days 1660 1614  
Cooling Degree Days 0 0  
Month to date cooling degree days 0 0  
Year to date cooling degree days 804 717  
Moisture  
Dew Point 21 °F    
Average Humidity 73    
Maximum Humidity 92    
Minimum Humidity 54    
Precipitation  
Precipitation 0.00 in 0.01 in 0.06 in (2015)
Month to date precipitation 0.83 0.55  
Year to date precipitation 19.96 17.15  
Sea Level Pressure  
Sea Level Pressure 30.29 in    
Wind  
Wind Speed 6 mph (SE)    
Max Wind Speed 23 mph    
Max Gust Speed 31 mph    
Visibility 10 miles    
Events      
T = Trace of Precipitation, MM = Missing Value Source: NWS Daily Summary

Daily Weather History Graph

Daily Weather History Graph

Search for Another Location

Airport or City:

Trip Planner

Search our weather history database for the weather conditions in past years. The results will help you decide how hot, cold, wet, or windy it might be!

Date:

Astronomy

Nov. 28, 2013 Rise Set
Actual Time 6:58 AM MST 4:17 PM MST
Civil Twilight 6:27 AM MST 4:48 PM MST
Nautical Twilight 5:51 AM MST 5:24 PM MST
Astronomical Twilight 5:17 AM MST 5:58 PM MST
Moon 1:56 AM MST (11/28) 1:34 PM MST (11/28)
Length of Visible Light 10h 21m
Length of Day
9h 18m
Waning Crescent, 22% of the Moon is Illuminated
Nov 28
Waning Crescent
Dec 2
New
Dec 9
First Quarter
Dec 17
Full
Dec 25
Last Quarter

Hourly Weather History & Observations

Time (MST) Temp. Windchill Dew Point Humidity Pressure Visibility Wind Dir Wind Speed Gust Speed Precip Events Conditions
12:52 AM 21.9 °F - 18.0 °F 85% 30.24 in 10.0 mi Calm Calm - N/A   Clear
1:52 AM 19.9 °F - 17.1 °F 89% 30.25 in 10.0 mi Calm Calm - N/A   Clear
2:52 AM 21.9 °F - 18.0 °F 85% 30.26 in 10.0 mi Calm Calm - N/A   Clear
3:52 AM 19.9 °F - 16.0 °F 85% 30.29 in 10.0 mi Calm Calm - N/A   Clear
4:52 AM 19.0 °F - 15.1 °F 85% 30.32 in 10.0 mi Calm Calm - N/A   Clear
5:52 AM 18.0 °F - 15.1 °F 88% 30.33 in 10.0 mi Calm Calm - N/A   Clear
6:52 AM 14.0 °F - 10.9 °F 88% 30.36 in 10.0 mi Calm Calm - N/A   Clear
7:52 AM 18.0 °F - 15.1 °F 88% 30.38 in 10.0 mi Calm Calm - N/A   Clear
8:52 AM 27.0 °F 23.0 °F 21.9 °F 81% 30.38 in 10.0 mi ENE 3.5 mph - N/A   Clear
9:52 AM 28.0 °F 20.0 °F 21.9 °F 78% 30.38 in 10.0 mi ENE 8.1 mph - N/A   Clear
10:52 AM 32.0 °F 25.6 °F 23.0 °F 69% 30.35 in 10.0 mi NE 6.9 mph - N/A   Clear
11:52 AM 36.0 °F 31.1 °F 25.0 °F 64% 30.33 in 10.0 mi NNE 5.8 mph - N/A   Clear
12:52 PM 39.0 °F - 25.0 °F 57% 30.31 in 10.0 mi Calm Calm - N/A   Clear
1:52 PM 39.9 °F 35.8 °F 25.0 °F 55% 30.29 in 10.0 mi SSE 5.8 mph - N/A   Clear
2:52 PM 39.0 °F 32.3 °F 25.0 °F 57% 30.27 in 10.0 mi SE 10.4 mph - N/A   Clear
3:52 PM 33.1 °F 24.4 °F 23.0 °F 66% 30.30 in 10.0 mi SE 11.5 mph - N/A   Clear
4:52 PM 28.0 °F 24.2 °F 21.9 °F 78% 30.31 in 10.0 mi East 3.5 mph - N/A   Clear
5:52 PM 28.0 °F 22.8 °F 21.9 °F 78% 30.30 in 10.0 mi East 4.6 mph - N/A   Clear
6:52 PM 27.0 °F - 21.9 °F 81% 30.30 in 10.0 mi Calm Calm - N/A   Clear
7:52 PM 34.0 °F 23.8 °F 24.1 °F 67% 30.25 in 10.0 mi South 16.1 mph 24.2 mph N/A   Clear
8:52 PM 34.0 °F 23.4 °F 23.0 °F 64% 30.22 in 10.0 mi South 17.3 mph 27.6 mph N/A   Clear
9:52 PM 33.1 °F 23.0 °F 23.0 °F 66% 30.21 in 10.0 mi South 15.0 mph 25.3 mph N/A   Clear
10:52 PM 33.1 °F 23.9 °F 21.9 °F 64% 30.19 in 10.0 mi SSW 12.7 mph 18.4 mph N/A   Clear
11:52 PM 32.0 °F 21.6 °F 21.9 °F 66% 30.16 in 10.0 mi SSW 15.0 mph 23.0 mph N/A   Clear